Shungnak AP, Shungnak, AK, AK

12:01 AM AKST on December 13, 2019 (GMT -0900)
Shungnak AP, Shungnak, AK

Weather History for PAGH - October, 2019

Change the Weather History Date:

Friday, October 18, 2019

  Actual Average (WUND) Record (WUND)
Temperature  
Mean Temperature 28 °F -  
Max Temperature 37 °F - - (-1)
Min Temperature 19 °F - - (-1)
Degree Days  
Heating Degree Days 38    
Moisture  
Dew Point 21 °F    
Average Humidity 72    
Maximum Humidity 92    
Minimum Humidity 57    
Precipitation  
Precipitation 0.00 in - - ()
Sea Level Pressure  
Sea Level Pressure 29.49 in    
Wind  
Wind Speed 4 mph (ESE)    
Max Wind Speed 9 mph    
Max Gust Speed -    
Visibility 10 miles    
Events      
Averages and records for this station are not official NWS values.
T = Trace of Precipitation, MM = Missing Value Source: NWS Daily Summary

Daily Weather History Graph

Daily Weather History Graph

Search for Another Location

Airport or City:

Astronomy

Oct. 18, 2019 Rise Set
Actual Time 9:38 AM AKDT 6:47 PM AKDT
Civil Twilight 8:43 AM AKDT 7:42 PM AKDT
Nautical Twilight 7:42 AM AKDT 8:43 PM AKDT
Astronomical Twilight 6:39 AM AKDT 9:45 PM AKDT
Moon 7:38 PM AKDT (10/18) 4:54 PM AKDT (10/18)
Length of Visible Light 10h 58m
Length of Day
9h 08m
Waning Gibbous, 77% of the Moon is Illuminated
Oct 18
Waning Gibbous
Oct 21
Last Quarter
Oct 27
New
Nov 4
First Quarter
Nov 12
Full

Hourly Weather History & Observations

Time (AKDT) Temp. Windchill Dew Point Humidity Pressure Visibility Wind Dir Wind Speed Gust Speed Precip Events Conditions
12:56 AM 32.0 °F 27.5 °F 21.9 °F 66% 29.39 in 10.0 mi South 4.6 mph - N/A   Overcast
1:56 AM 32.0 °F 27.5 °F 23.0 °F 69% 29.40 in 10.0 mi ESE 4.6 mph - N/A   Overcast
2:56 AM 30.9 °F 25.2 °F 21.9 °F 69% 29.40 in 10.0 mi ESE 5.8 mph - N/A   Clear
3:56 AM 28.9 °F 22.8 °F 21.9 °F 75% 29.42 in 10.0 mi ESE 5.8 mph - N/A   Clear
4:56 AM 28.0 °F 22.8 °F 21.9 °F 78% 29.43 in 10.0 mi East 4.6 mph - N/A   Clear
5:56 AM 28.0 °F 21.7 °F 21.9 °F 78% 29.43 in 10.0 mi East 5.8 mph - N/A   Mostly Cloudy
6:56 AM 28.0 °F 22.8 °F 21.9 °F 78% 29.44 in 10.0 mi East 4.6 mph - N/A   Overcast
8:56 AM 19.9 °F - 17.1 °F 89% 29.46 in 10.0 mi Calm Calm - N/A   Clear
9:56 AM 19.9 °F 13.4 °F 18.0 °F 92% 29.47 in 10.0 mi SW 4.6 mph - N/A   Clear
10:56 AM 19.9 °F - 17.1 °F 89% 29.48 in 10.0 mi Calm Calm - N/A   Clear
11:56 AM 27.0 °F - 21.9 °F 81% 29.49 in 10.0 mi Calm Calm - N/A   Clear
12:56 PM 28.0 °F - 21.0 °F 75% 29.50 in 9.0 mi Calm Calm - N/A   Overcast
2:56 PM 30.9 °F 27.5 °F 23.0 °F 72% 29.51 in 10.0 mi SW 3.5 mph - N/A   Clear
3:56 PM 35.1 °F 30.1 °F 21.9 °F 59% 29.50 in 10.0 mi East 5.8 mph - N/A   Clear
4:56 PM 36.0 °F 29.0 °F 21.9 °F 57% 29.51 in 10.0 mi East 9.2 mph - N/A   Clear
5:56 PM 35.1 °F 29.3 °F 21.9 °F 59% 29.52 in 10.0 mi East 6.9 mph - N/A   Partly Cloudy
6:56 PM 34.0 °F 28.8 °F 21.9 °F 61% 29.52 in 10.0 mi East 5.8 mph - N/A   Partly Cloudy
7:56 PM 33.1 °F 28.7 °F 21.9 °F 64% 29.54 in 10.0 mi SE 4.6 mph - N/A   Overcast
8:56 PM 33.1 °F 28.7 °F 21.9 °F 64% 29.55 in 10.0 mi ESE 4.6 mph - N/A   Partly Cloudy
9:56 PM 32.0 °F 27.5 °F 21.9 °F 66% 29.56 in 10.0 mi East 4.6 mph - N/A   Clear
10:56 PM 32.0 °F 26.4 °F 21.9 °F 66% 29.57 in 10.0 mi ESE 5.8 mph - N/A   Clear
11:56 PM 33.1 °F 26.9 °F 23.0 °F 66% 29.58 in 10.0 mi East 6.9 mph - N/A   Partly Cloudy